Weather in Velikooktyabrskiy

Russia / Tver Oblast     57°26′01″N   33°48′51″E
temp.,
°C
wind,
m/s
gust,
m/s
humid.,
%
clouds,
%
prec.,
mm/h
press.,
hPa
HPBL,
m
16 april, fri
fri1600:00+5ene51478100 0.0 1023646
03:00+4ene51484100 0.0 1023539
06:00+3ene51486100 0.0 1023517
09:00+6ene61378100 0.0 1023567
12:00+9ene6106996 0.0 1024765
15:00+12ene696299 0.0 1023972
18:00+10ene61168100 0.0 1023877
21:00+7ene61469100 0.0 1025645
17 april, sat
sat1700:00+6ene51467100 0.0 1025553
03:00+5ene51275100 0.0 1025506
06:00+4ene41280100 0.0 1026471
09:00+6ene51074100 0.0 1026518
12:00+11ene5863100 0.0 1026830
15:00+13ene6855100 0.0 10251099
18:00+12ene59548 0.0 10251013
21:00+7ne5135969 0.0 1026507
18 april, sun
sun1800:00+5ene414670 0.0 1026466
03:00+4ne413790 0.0 1026399
06:00+3ne413840 0.0 1026401
09:00+7ene510620 0.0 1026665
12:00+11ene58455 0.0 10251372
15:00+12ene68395 0.0 10251831
18:00+12ene58475 0.0 10251849
21:00+7ne412635 0.0 1026504
19 april, mon
mon1900:00+5ne411765 0.0 1026367
03:00+4ne3108489 0.0 1027357
06:00+3ne310945 0.0 1027341
09:00+7ene587664 0.0 1027718
12:00+8e5868100 0.0 10261203
15:00+7ene4975100 0.0 10261026
18:00+7e41076100 0.0 10261213
21:00+6e41080100 0.0 10251002
20 april, tue
tue2000:00+6e41079100 0.0 1024874
03:00+4ene41082100 0.0 1023647
06:00+3e41080100 0.0 1022573
09:00+5e596851 0.0 1020809
12:00+6e5870100 0.0 10181009
15:00+7ene51066100 0.0 10161237
18:00+4ene61392100 0.1 1013779
21:00+3ene71696100 1.8 1009937